| time (UTC) | temp F | wind direction | speed MPH | gust MPH | rain 1hr in | rain 24hr in | rain mn in | humidity % | barometer mb |
| 20260506014007 | 66 | 171 | 2.0 | 7.0 | 0.00 | 0.00 | 0.00 | 63 | 1009.0 |
| 20260506013509 | 66 | 189 | 2.0 | 8.0 | 0.00 | 0.00 | 0.00 | 63 | 1008.9 |
| 20260506013028 | 66 | 200 | 2.0 | 8.0 | 0.00 | 0.00 | 0.00 | 63 | 1008.9 |
| 20260506012509 | 67 | 188 | 1.0 | 6.0 | 0.00 | 0.00 | 0.00 | 62 | 1008.8 |
| 20260506012011 | 67 | 250 | 1.0 | 9.0 | 0.00 | 0.00 | 0.00 | 61 | 1008.9 |
| 20260506011526 | 68 | 166 | 1.0 | 9.0 | 0.00 | 0.00 | 0.00 | 60 | 1008.9 |
| 20260506011006 | 69 | 194 | 1.0 | 7.0 | 0.00 | 0.00 | 0.00 | 58 | 1008.8 |
| 20260506010508 | 69 | 171 | 2.0 | 12.0 | 0.00 | 0.00 | 0.00 | 56 | 1008.7 |
| 20260506010023 | 70 | 215 | 3.0 | 12.0 | 0.00 | 0.00 | 0.00 | 55 | 1008.7 |
| 20260506005509 | 70 | 182 | 1.0 | 11.0 | 0.00 | 0.00 | 0.00 | 54 | 1008.6 |
| 20260506005015 | 71 | 182 | 2.0 | 11.0 | 0.00 | 0.00 | 0.00 | 53 | 1008.5 |
| 20260506004534 | 71 | 207 | 1.0 | 5.0 | 0.00 | 0.00 | 0.00 | 53 | 1008.4 |
| 20260506004009 | 72 | 159 | 1.0 | 5.0 | 0.00 | 0.00 | 0.00 | 51 | 1008.3 |
| 20260506003510 | 73 | 174 | 1.0 | 4.0 | 0.00 | 0.00 | 0.00 | 49 | 1008.2 |
| 20260506003024 | 74 | 173 | 1.0 | 7.0 | 0.00 | 0.00 | 0.00 | 47 | 1008.1 |
| 20260506002512 | 75 | 209 | 2.0 | 7.0 | 0.00 | 0.00 | 0.00 | 44 | 1008.2 |
| 20260506002013 | 77 | 206 | 2.0 | 7.0 | 0.00 | 0.00 | 0.00 | 41 | 1008.2 |
| 20260506001528 | 78 | 205 | 3.0 | 12.0 | 0.00 | 0.00 | 0.00 | 33 | 1008.0 |
| 20260506001010 | 78 | 233 | 2.0 | 12.0 | 0.00 | 0.00 | 0.00 | 32 | 1007.7 |
| 20260506000507 | 78 | 192 | 2.0 | 10.0 | 0.00 | 0.00 | 0.00 | 32 | 1007.8 |
| 20260506000035 | 79 | 302 | 3.0 | 12.0 | 0.00 | 0.00 | 0.00 | 32 | 1007.8 |
| 20260505235514 | 79 | 200 | 2.0 | 12.0 | 0.00 | 0.00 | 0.00 | 31 | 1007.8 |
| 20260505235007 | 79 | 191 | 4.0 | 11.0 | 0.00 | 0.00 | 0.00 | 31 | 1007.6 |
| 20260505234520 | 79 | 277 | 5.0 | 11.0 | 0.00 | 0.00 | 0.00 | 31 | 1007.5 |
| 20260505234009 | 79 | 260 | 2.0 | 6.0 | 0.00 | 0.00 | 0.00 | 31 | 1007.6 |
| 20260505233513 | 79 | 192 | 2.0 | 11.0 | 0.00 | 0.00 | 0.00 | 30 | 1007.6 |
| 20260505233022 | 79 | 200 | 5.0 | 14.0 | 0.00 | 0.00 | 0.00 | 30 | 1007.4 |
| 20260505232512 | 80 | 202 | 3.0 | 14.0 | 0.00 | 0.00 | 0.00 | 30 | 1007.3 |
| 20260505232010 | 80 | 197 | 3.0 | 10.0 | 0.00 | 0.00 | 0.00 | 30 | 1007.3 |
| 20260505231527 | 80 | 189 | 3.0 | 15.0 | 0.00 | 0.00 | 0.00 | 29 | 1007.3 |
| 20260505231010 | 80 | 199 | 6.0 | 19.0 | 0.00 | 0.00 | 0.00 | 29 | 1007.3 |
| 20260505230513 | 80 | 198 | 2.0 | 19.0 | 0.00 | 0.00 | 0.00 | 29 | 1007.1 |
| 20260505230033 | 81 | 104 | 4.0 | 15.0 | 0.00 | 0.00 | 0.00 | 29 | 1007.1 |
| 20260505225513 | 81 | 200 | 5.0 | 15.0 | 0.00 | 0.00 | 0.00 | 29 | 1007.0 |
| 20260505225007 | 81 | 234 | 7.0 | 17.0 | 0.00 | 0.00 | 0.00 | 28 | 1006.9 |
| 20260505224522 | 81 | 159 | 5.0 | 19.0 | 0.00 | 0.00 | 0.00 | 28 | 1006.9 |
| 20260505224012 | 81 | 248 | 6.0 | 19.0 | 0.00 | 0.00 | 0.00 | 28 | 1006.9 |
| 20260505223512 | 81 | 224 | 6.0 | 19.0 | 0.00 | 0.00 | 0.00 | 28 | 1006.9 |
| 20260505223028 | 82 | 202 | 8.0 | 20.0 | 0.00 | 0.00 | 0.00 | 28 | 1006.9 |
| 20260505222507 | 82 | 250 | 5.0 | 21.0 | 0.00 | 0.00 | 0.00 | 29 | 1006.6 |
| 20260505222009 | 82 | 232 | 4.0 | 20.0 | 0.00 | 0.00 | 0.00 | 29 | 1006.7 |
| 20260505221522 | 82 | 275 | 5.0 | 16.0 | 0.00 | 0.00 | 0.00 | 29 | 1006.5 |
| 20260505221012 | 82 | 153 | 4.0 | 16.0 | 0.00 | 0.00 | 0.00 | 29 | 1006.6 |
| 20260505220510 | 82 | 292 | 7.0 | 14.0 | 0.00 | 0.00 | 0.00 | 29 | 1006.6 |
| 20260505220036 | 82 | 171 | 8.0 | 20.0 | 0.00 | 0.00 | 0.00 | 28 | 1006.9 |
| 20260505215512 | 82 | 205 | 6.0 | 20.0 | 0.00 | 0.00 | 0.00 | 28 | 1006.8 |
| 20260505215009 | 82 | 313 | 4.0 | 20.0 | 0.00 | 0.00 | 0.00 | 29 | 1006.6 |
| 20260505214547 | 83 | 228 | 4.0 | 15.0 | 0.00 | 0.00 | 0.00 | 28 | 1006.6 |
| 20260505214007 | 83 | 159 | 4.0 | 15.0 | 0.00 | 0.00 | 0.00 | 28 | 1006.4 |
| 20260505213507 | 83 | 297 | 5.0 | 12.0 | 0.00 | 0.00 | 0.00 | 28 | 1006.3 |
| 20260505213030 | 83 | 166 | 4.0 | 17.0 | 0.00 | 0.00 | 0.00 | 28 | 1006.3 |
| 20260505212510 | 83 | 196 | 7.0 | 18.0 | 0.00 | 0.00 | 0.00 | 28 | 1006.2 |
| 20260505212003 | 84 | 242 | 8.0 | 18.0 | 0.00 | 0.00 | 0.00 | 28 | 1006.2 |
| 20260505211505 | 84 | 194 | 4.0 | 17.0 | 0.00 | 0.00 | 0.00 | 28 | 1006.2 |
| 20260505211009 | 84 | 194 | 4.0 | 17.0 | 0.00 | 0.00 | 0.00 | 28 | 1006.2 |
| 20260505210504 | 84 | 248 | 3.0 | 11.0 | 0.00 | 0.00 | 0.00 | 28 | 1006.3 |
| 20260505210007 | 84 | 211 | 3.0 | 14.0 | 0.00 | 0.00 | 0.00 | 28 | 1006.2 |
| 20260505205509 | 84 | 159 | 6.0 | 17.0 | 0.00 | 0.00 | 0.00 | 27 | 1006.2 |
| 20260505205009 | 83 | 243 | 7.0 | 16.0 | 0.00 | 0.00 | 0.00 | 28 | 1006.1 |
| 20260505204516 | 84 | 272 | 4.0 | 18.0 | 0.00 | 0.00 | 0.00 | 28 | 1006.2 |
| 20260505204007 | 83 | 238 | 5.0 | 19.0 | 0.00 | 0.00 | 0.00 | 28 | 1006.2 |
| 20260505203511 | 83 | 211 | 6.0 | 19.0 | 0.00 | 0.00 | 0.00 | 28 | 1006.1 |
| 20260505203015 | 82 | 236 | 7.0 | 16.0 | 0.00 | 0.00 | 0.00 | 32 | 1006.5 |
| 20260505202506 | 80 | 197 | 3.0 | 16.0 | 0.00 | 0.00 | 0.00 | 33 | 1006.5 |
| 20260505202008 | 79 | 162 | 3.0 | 7.0 | 0.00 | 0.00 | 0.00 | 40 | 1006.6 |
| 20260505201527 | 78 | 168 | 1.0 | 9.0 | 0.00 | 0.00 | 0.00 | 46 | 1006.6 |
| 20260505201004 | 77 | 303 | 1.0 | 9.0 | 0.00 | 0.00 | 0.00 | 48 | 1006.7 |
| 20260505200506 | 77 | 146 | 3.0 | 11.0 | 0.00 | 0.00 | 0.00 | 48 | 1006.7 |
| 20260505200008 | 77 | 225 | 3.0 | 11.0 | 0.00 | 0.00 | 0.00 | 47 | 1006.8 |
| 20260505195505 | 77 | 164 | 4.0 | 10.0 | 0.00 | 0.00 | 0.00 | 46 | 1006.8 |
| 20260505195004 | 78 | 150 | 2.0 | 8.0 | 0.00 | 0.00 | 0.00 | 48 | 1006.8 |
| 20260505194510 | 78 | 258 | 3.0 | 11.0 | 0.00 | 0.00 | 0.00 | 47 | 1006.9 |
| 20260505194010 | 77 | 232 | 3.0 | 11.0 | 0.00 | 0.00 | 0.00 | 48 | 1007.0 |
| 20260505193507 | 77 | 147 | 3.0 | 12.0 | 0.00 | 0.00 | 0.00 | 47 | 1007.0 |
| 20260505193034 | 78 | 203 | 5.0 | 13.0 | 0.00 | 0.00 | 0.00 | 46 | 1007.1 |
| 20260505192508 | 78 | 168 | 4.0 | 11.0 | 0.00 | 0.00 | 0.00 | 46 | 1007.2 |
| 20260505192006 | 79 | 232 | 4.0 | 14.0 | 0.00 | 0.00 | 0.00 | 44 | 1007.2 |
| 20260505191522 | 79 | 189 | 2.0 | 14.0 | 0.00 | 0.00 | 0.00 | 44 | 1007.3 |
| 20260505191009 | 80 | 180 | 3.0 | 15.0 | 0.00 | 0.00 | 0.00 | 44 | 1007.3 |
| 20260505190507 | 80 | 123 | 6.0 | 15.0 | 0.00 | 0.00 | 0.00 | 40 | 1007.2 |
| 20260505190008 | 79 | 177 | 5.0 | 10.0 | 0.00 | 0.00 | 0.00 | 42 | 1007.2 |
| 20260505185510 | 78 | 171 | 4.0 | 10.0 | 0.00 | 0.00 | 0.00 | 45 | 1007.5 |
| 20260505185005 | 78 | 212 | 4.0 | 10.0 | 0.00 | 0.00 | 0.00 | 46 | 1007.9 |
| 20260505184507 | 78 | 105 | 2.0 | 10.0 | 0.00 | 0.00 | 0.00 | 46 | 1007.8 |
| 20260505184007 | 78 | 211 | 3.0 | 11.0 | 0.00 | 0.00 | 0.00 | 46 | 1007.9 |
| 20260505183507 | 78 | 195 | 4.0 | 13.0 | 0.00 | 0.00 | 0.00 | 45 | 1007.9 |
| 20260505183017 | 79 | 142 | 3.0 | 13.0 | 0.00 | 0.00 | 0.00 | 44 | 1007.9 |
| 20260505182506 | 78 | 158 | 2.0 | 8.0 | 0.00 | 0.00 | 0.00 | 44 | 1007.9 |
| 20260505182012 | 79 | 212 | 4.0 | 8.0 | 0.00 | 0.00 | 0.00 | 44 | 1008.0 |
| 20260505181521 | 78 | 217 | 3.0 | 8.0 | 0.00 | 0.00 | 0.00 | 44 | 1008.0 |
| 20260505181011 | 78 | 130 | 3.0 | 8.0 | 0.00 | 0.00 | 0.00 | 44 | 1008.0 |
| 20260505180507 | 78 | 147 | 2.0 | 8.0 | 0.00 | 0.00 | 0.00 | 45 | 1008.0 |
| 20260505180032 | 78 | 210 | 3.0 | 7.0 | 0.00 | 0.00 | 0.00 | 44 | 1008.0 |
| 20260505175510 | 79 | 184 | 3.0 | 11.0 | 0.00 | 0.00 | 0.00 | 44 | 1008.0 |
| 20260505175009 | 79 | 169 | 3.0 | 11.0 | 0.00 | 0.00 | 0.00 | 43 | 1008.0 |
| 20260505174506 | 79 | 210 | 3.0 | 7.0 | 0.00 | 0.00 | 0.00 | 43 | 1008.0 |
| 20260505174007 | 79 | 172 | 3.0 | 7.0 | 0.00 | 0.00 | 0.00 | 44 | 1008.1 |
| 20260505173504 | 78 | 246 | 2.0 | 11.0 | 0.00 | 0.00 | 0.00 | 45 | 1008.2 |
| 20260505173008 | 78 | 157 | 2.0 | 11.0 | 0.00 | 0.00 | 0.00 | 44 | 1008.4 |
| 20260505172506 | 78 | 216 | 2.0 | 11.0 | 0.00 | 0.00 | 0.00 | 44 | 1008.4 |
| 20260505172011 | 78 | 117 | 2.0 | 9.0 | 0.00 | 0.00 | 0.00 | 44 | 1008.5 |
| 20260505171526 | 78 | 327 | 1.0 | 9.0 | 0.00 | 0.00 | 0.00 | 45 | 1008.6 |
| 20260505171005 | 77 | 152 | 2.0 | 8.0 | 0.00 | 0.00 | 0.00 | 45 | 1008.5 |
| 20260505170509 | 77 | 195 | 2.0 | 11.0 | 0.00 | 0.00 | 0.00 | 46 | 1008.6 |
| 20260505170018 | 77 | 134 | 2.0 | 11.0 | 0.00 | 0.00 | 0.00 | 45 | 1008.6 |
| 20260505165509 | 77 | 165 | 2.0 | 13.0 | 0.00 | 0.00 | 0.00 | 46 | 1008.6 |
| 20260505165010 | 76 | 219 | 3.0 | 13.0 | 0.00 | 0.00 | 0.00 | 45 | 1008.9 |
| 20260505164533 | 77 | 93 | 3.0 | 10.0 | 0.00 | 0.00 | 0.00 | 46 | 1009.0 |
| 20260505164008 | 77 | 129 | 3.0 | 10.0 | 0.00 | 0.00 | 0.00 | 45 | 1009.0 |
| 20260505163504 | 77 | 151 | 2.0 | 9.0 | 0.00 | 0.00 | 0.00 | 46 | 1009.1 |
| 20260505163006 | 76 | 137 | 1.0 | 8.0 | 0.00 | 0.00 | 0.00 | 48 | 1009.1 |
| 20260505162503 | 76 | 217 | 2.0 | 8.0 | 0.00 | 0.00 | 0.00 | 46 | 1009.3 |
| 20260505162004 | 76 | 215 | 2.0 | 9.0 | 0.00 | 0.00 | 0.00 | 47 | 1009.3 |
| 20260505161514 | 76 | 169 | 2.0 | 14.0 | 0.00 | 0.00 | 0.00 | 46 | 1009.2 |
| 20260505161006 | 77 | 89 | 3.0 | 14.0 | 0.00 | 0.00 | 0.00 | 46 | 1009.3 |
| 20260505160508 | 78 | 171 | 1.0 | 6.0 | 0.00 | 0.00 | 0.00 | 45 | 1009.3 |
| 20260505153029 | 76 | 250 | 4.0 | 13.0 | 0.00 | 0.00 | 0.00 | 45 | 1009.7 |
| 20260505152506 | 76 | 146 | 2.0 | 13.0 | 0.00 | 0.00 | 0.00 | 44 | 1009.7 |
| 20260505152015 | 76 | 190 | 2.0 | 10.0 | 0.00 | 0.00 | 0.00 | 46 | 1009.7 |
| 20260505151510 | 76 | 153 | 2.0 | 10.0 | 0.00 | 0.00 | 0.00 | 46 | 1009.8 |
| 20260505151008 | 76 | 201 | 3.0 | 8.0 | 0.00 | 0.00 | 0.00 | 45 | 1009.9 |
| 20260505150513 | 75 | 153 | 1.0 | 12.0 | 0.00 | 0.00 | 0.00 | 48 | 1009.9 |
| 20260505140512 | 70 | 252 | 4.0 | 11.0 | 0.00 | 0.00 | 0.00 | 56 | 1010.3 |
| 20260505125004 | 63 | 165 | 1.0 | 6.0 | 0.00 | 0.00 | 0.00 | 69 | 1010.1 |
| 20260505124517 | 63 | 206 | 1.0 | 4.0 | 0.00 | 0.00 | 0.00 | 69 | 1010.0 |
| 20260505124011 | 63 | 145 | 2.0 | 5.0 | 0.00 | 0.00 | 0.00 | 68 | 1010.1 |
| 20260505123511 | 63 | 169 | 2.0 | 6.0 | 0.00 | 0.00 | 0.00 | 68 | 1010.3 |
| 20260505123029 | 62 | 180 | 0.0 | 6.0 | 0.00 | 0.00 | 0.00 | 70 | 1010.4 |
| 20260505122508 | 62 | 78 | 0.0 | 6.0 | 0.00 | 0.00 | 0.00 | 70 | 1010.5 |
| 20260505122009 | 61 | 200 | 2.0 | 5.0 | 0.00 | 0.00 | 0.00 | 70 | 1010.4 |
| 20260505121532 | 61 | 182 | 2.0 | 4.0 | 0.00 | 0.00 | 0.00 | 72 | 1010.4 |
| 20260505121007 | 60 | 202 | 1.0 | 4.0 | 0.00 | 0.00 | 0.00 | 72 | 1010.2 |
| 20260505120514 | 60 | 176 | 0.0 | 4.0 | 0.00 | 0.00 | 0.00 | 77 | 1010.2 |
| 20260505120037 | 59 | 186 | 1.0 | 4.0 | 0.00 | 0.00 | 0.00 | 77 | 1010.2 |
| 20260505115512 | 58 | 220 | 1.0 | 3.0 | 0.00 | 0.00 | 0.00 | 78 | 1010.1 |
| 20260505115008 | 58 | 198 | 1.0 | 3.0 | 0.00 | 0.00 | 0.00 | 78 | 1010.3 |
| 20260505114514 | 58 | 292 | 0.0 | 3.0 | 0.00 | 0.00 | 0.00 | 78 | 1010.2 |
| 20260505114010 | 58 | 5 | 1.0 | 3.0 | 0.00 | 0.00 | 0.00 | 76 | 1010.3 |
| 20260505113506 | 59 | 303 | 0.0 | 2.0 | 0.00 | 0.00 | 0.00 | 74 | 1010.3 |
| 20260505113018 | 59 | 157 | 0.0 | 3.0 | 0.00 | 0.00 | 0.00 | 72 | 1010.4 |
| 20260505112507 | 59 | 183 | 2.0 | 3.0 | 0.00 | 0.00 | 0.00 | 69 | 1010.5 |
| 20260505112007 | 59 | 218 | 0.0 | 2.0 | 0.00 | 0.00 | 0.00 | 69 | 1010.8 |
| 20260505111524 | 59 | 286 | 1.0 | 2.0 | 0.00 | 0.00 | 0.00 | 69 | 1010.7 |
| 20260505111007 | 59 | 187 | 0.0 | 3.0 | 0.00 | 0.00 | 0.00 | 70 | 1010.7 |
| 20260505110507 | 59 | 186 | 1.0 | 3.0 | 0.00 | 0.00 | 0.00 | 69 | 1010.6 |
| 20260505102006 | 56 | 223 | 0.0 | 2.0 | 0.00 | 0.00 | 0.00 | 75 | 1010.3 |
| 20260505101521 | 56 | 223 | 0.0 | 2.0 | 0.00 | 0.00 | 0.00 | 75 | 1010.1 |
| 20260505101009 | 55 | 189 | 1.0 | 2.0 | 0.00 | 0.00 | 0.00 | 75 | 1010.0 |
| 20260505100508 | 55 | 281 | 0.0 | 2.0 | 0.00 | 0.00 | 0.00 | 75 | 1010.0 |
| 20260505100030 | 56 | 281 | 1.0 | 2.0 | 0.00 | 0.00 | 0.00 | 75 | 1009.9 |
| 20260505095507 | 56 | 217 | 0.0 | 2.0 | 0.00 | 0.00 | 0.00 | 74 | 1009.8 |
| 20260505095010 | 56 | 211 | 0.0 | 2.0 | 0.00 | 0.00 | 0.00 | 74 | 1009.7 |
| 20260505094529 | 56 | 215 | 1.0 | 5.0 | 0.00 | 0.00 | 0.00 | 74 | 1009.6 |
| 20260505094010 | 56 | 215 | 1.0 | 5.0 | 0.00 | 0.00 | 0.00 | 74 | 1009.5 |
| 20260505093511 | 56 | 196 | 0.0 | 2.0 | 0.00 | 0.00 | 0.00 | 74 | 1009.6 |
| 20260505093027 | 56 | 202 | 0.0 | 2.0 | 0.00 | 0.00 | 0.00 | 73 | 1009.6 |
| 20260505092508 | 56 | 199 | 0.0 | 2.0 | 0.00 | 0.00 | 0.00 | 73 | 1009.5 |
| 20260505092009 | 56 | 199 | 0.0 | 2.0 | 0.00 | 0.00 | 0.00 | 72 | 1009.4 |
| 20260505091529 | 56 | 199 | 0.0 | 2.0 | 0.00 | 0.00 | 0.00 | 72 | 1009.4 |
| 20260505091013 | 56 | 196 | 0.0 | 2.0 | 0.00 | 0.00 | 0.00 | 72 | 1009.5 |
| 20260505090506 | 56 | 196 | 0.0 | 2.0 | 0.00 | 0.00 | 0.00 | 72 | 1009.5 |
| 20260505090041 | 56 | 196 | 0.0 | 2.0 | 0.00 | 0.00 | 0.00 | 72 | 1009.3 |
| 20260505085510 | 56 | 210 | 1.0 | 2.0 | 0.00 | 0.00 | 0.00 | 72 | 1009.4 |
| 20260505085011 | 56 | 215 | 0.0 | 2.0 | 0.00 | 0.00 | 0.00 | 71 | 1009.4 |
| 20260505084526 | 57 | 221 | 0.0 | 2.0 | 0.00 | 0.00 | 0.00 | 71 | 1009.4 |
| 20260505084012 | 57 | 216 | 1.0 | 2.0 | 0.00 | 0.00 | 0.00 | 70 | 1009.4 |
| 20260505083510 | 57 | 203 | 0.0 | 3.0 | 0.00 | 0.00 | 0.00 | 70 | 1009.4 |
| 20260505083028 | 57 | 203 | 0.0 | 3.0 | 0.00 | 0.00 | 0.00 | 70 | 1009.4 |
| 20260505082507 | 57 | 206 | 0.0 | 2.0 | 0.00 | 0.00 | 0.00 | 69 | 1009.4 |
| 20260505082008 | 57 | 215 | 0.0 | 2.0 | 0.00 | 0.00 | 0.00 | 69 | 1009.5 |
| 20260505081525 | 58 | 215 | 0.0 | 2.0 | 0.00 | 0.00 | 0.00 | 68 | 1009.5 |
| 20260505081009 | 58 | 215 | 0.0 | 2.0 | 0.00 | 0.00 | 0.00 | 68 | 1009.5 |
| 20260505080509 | 58 | 207 | 1.0 | 2.0 | 0.00 | 0.00 | 0.00 | 67 | 1009.5 |
| 20260505080043 | 58 | 193 | 0.0 | 5.0 | 0.00 | 0.00 | 0.00 | 67 | 1009.5 |
| 20260505075509 | 58 | 209 | 1.0 | 5.0 | 0.00 | 0.00 | 0.00 | 67 | 1009.5 |
| 20260505075011 | 58 | 198 | 0.0 | 2.0 | 0.00 | 0.00 | 0.00 | 67 | 1009.6 |
| 20260505074525 | 58 | 198 | 0.0 | 3.0 | 0.00 | 0.00 | 0.00 | 67 | 1009.6 |
| 20260505074007 | 58 | 204 | 0.0 | 3.0 | 0.00 | 0.00 | 0.00 | 67 | 1009.6 |
| 20260505073508 | 58 | 201 | 0.0 | 3.0 | 0.00 | 0.00 | 0.00 | 67 | 1009.5 |
| 20260505073034 | 58 | 243 | 1.0 | 7.0 | 0.00 | 0.00 | 0.00 | 68 | 1009.4 |
| 20260505072509 | 57 | 211 | 1.0 | 7.0 | 0.00 | 0.00 | 0.00 | 68 | 1009.3 |
| 20260505072012 | 57 | 192 | 0.0 | 3.0 | 0.00 | 0.00 | 0.00 | 69 | 1009.3 |
| 20260505071529 | 57 | 194 | 1.0 | 2.0 | 0.00 | 0.00 | 0.00 | 69 | 1009.4 |
| 20260505071009 | 56 | 275 | 0.0 | 2.0 | 0.00 | 0.00 | 0.00 | 69 | 1009.3 |
| 20260505070508 | 56 | 275 | 0.0 | 2.0 | 0.00 | 0.00 | 0.00 | 69 | 1009.4 |
| 20260505070022 | 56 | 275 | 0.0 | 1.0 | 0.00 | 0.00 | 0.00 | 69 | 1009.4 |
| 20260505065508 | 57 | 225 | 0.0 | 2.0 | 0.00 | 0.00 | 0.00 | 68 | 1009.4 |
| 20260505065007 | 57 | 225 | 0.0 | 2.0 | 0.00 | 0.00 | 0.00 | 68 | 1009.4 |
| 20260505064522 | 57 | 290 | 0.0 | 2.0 | 0.00 | 0.00 | 0.00 | 68 | 1009.4 |
| 20260505064012 | 57 | 290 | 1.0 | 2.0 | 0.00 | 0.00 | 0.00 | 67 | 1009.5 |
| 20260505063513 | 58 | 282 | 0.0 | 2.0 | 0.00 | 0.00 | 0.00 | 66 | 1009.6 |
| 20260505063007 | 58 | 280 | 0.0 | 2.0 | 0.00 | 0.00 | 0.00 | 65 | 1009.5 |
| 20260505062504 | 58 | 316 | 1.0 | 2.0 | 0.00 | 0.00 | 0.00 | 64 | 1009.5 |
| 20260505062006 | 59 | 205 | 0.0 | 3.0 | 0.00 | 0.00 | 0.00 | 63 | 1009.6 |
| 20260505061516 | 59 | 193 | 0.0 | 3.0 | 0.00 | 0.00 | 0.00 | 63 | 1009.6 |
| 20260505061009 | 59 | 223 | 0.0 | 2.0 | 0.00 | 0.00 | 0.00 | 62 | 1009.7 |
| 20260505060509 | 59 | 155 | 0.0 | 2.0 | 0.00 | 0.00 | 0.00 | 62 | 1009.7 |
| 20260505060024 | 60 | 155 | 0.0 | 2.0 | 0.00 | 0.00 | 0.00 | 60 | 1009.7 |
| 20260505055508 | 60 | 186 | 0.0 | 3.0 | 0.00 | 0.00 | 0.00 | 60 | 1009.8 |
| 20260505055012 | 60 | 203 | 1.0 | 6.0 | 0.00 | 0.00 | 0.00 | 59 | 1009.8 |
| 20260505054523 | 60 | 211 | 1.0 | 8.0 | 0.00 | 0.00 | 0.00 | 59 | 1009.7 |
| 20260505054011 | 61 | 210 | 1.0 | 8.0 | 0.00 | 0.00 | 0.00 | 59 | 1009.8 |
| 20260505053504 | 61 | 211 | 1.0 | 5.0 | 0.00 | 0.00 | 0.00 | 58 | 1009.7 |
| 20260505053012 | 61 | 200 | 2.0 | 11.0 | 0.00 | 0.00 | 0.00 | 58 | 1009.7 |
| 20260505052508 | 61 | 202 | 1.0 | 11.0 | 0.00 | 0.00 | 0.00 | 58 | 1009.8 |
| 20260505052003 | 60 | 210 | 2.0 | 3.0 | 0.00 | 0.00 | 0.00 | 58 | 1009.9 |
| 20260505051509 | 61 | 239 | 0.0 | 4.0 | 0.00 | 0.00 | 0.00 | 57 | 1009.9 |
| 20260505051005 | 61 | 197 | 1.0 | 4.0 | 0.00 | 0.00 | 0.00 | 57 | 1009.9 |
| 20260505050509 | 61 | 257 | 1.0 | 4.0 | 0.00 | 0.00 | 0.00 | 57 | 1009.9 |
| 20260505041507 | 62 | 206 | 1.0 | 7.0 | 0.00 | 0.00 | 0.00 | 54 | 1010.1 |
| 20260505041004 | 62 | 182 | 1.0 | 7.0 | 0.00 | 0.00 | 0.00 | 54 | 1010.2 |
| 20260505040507 | 62 | 214 | 0.0 | 4.0 | 0.00 | 0.00 | 0.00 | 53 | 1010.1 |
| 20260505040013 | 62 | 213 | 1.0 | 8.0 | 0.00 | 0.00 | 0.00 | 53 | 1010.1 |
| 20260505035507 | 62 | 214 | 1.0 | 8.0 | 0.00 | 0.00 | 0.00 | 52 | 1010.0 |
| 20260505035008 | 62 | 201 | 0.0 | 4.0 | 0.00 | 0.00 | 0.00 | 53 | 1010.0 |
| 20260505034516 | 62 | 190 | 1.0 | 4.0 | 0.00 | 0.00 | 0.00 | 52 | 1010.0 |
| 20260505034008 | 62 | 212 | 0.0 | 5.0 | 0.00 | 0.00 | 0.00 | 52 | 1010.0 |
| 20260505033509 | 62 | 224 | 2.0 | 5.0 | 0.00 | 0.00 | 0.00 | 52 | 1010.1 |
| 20260505033022 | 62 | 194 | 1.0 | 5.0 | 0.00 | 0.00 | 0.00 | 52 | 1010.1 |
| 20260505032509 | 63 | 188 | 1.0 | 9.0 | 0.00 | 0.00 | 0.00 | 52 | 1010.2 |
| 20260505032011 | 63 | 191 | 3.0 | 9.0 | 0.00 | 0.00 | 0.00 | 52 | 1010.2 |
| 20260505031525 | 62 | 219 | 2.0 | 6.0 | 0.00 | 0.00 | 0.00 | 53 | 1010.2 |
| 20260505031009 | 62 | 197 | 2.0 | 8.0 | 0.00 | 0.00 | 0.00 | 54 | 1010.2 |
| 20260505030504 | 61 | 200 | 1.0 | 8.0 | 0.00 | 0.00 | 0.00 | 55 | 1010.1 |
| 20260505030009 | 60 | 225 | 1.0 | 5.0 | 0.00 | 0.00 | 0.00 | 56 | 1010.1 |
| 20260505025505 | 60 | 184 | 1.0 | 6.0 | 0.00 | 0.00 | 0.00 | 59 | 1010.1 |
| 20260505025007 | 58 | 196 | 1.0 | 6.0 | 0.00 | 0.00 | 0.00 | 61 | 1010.1 |
| 20260505024518 | 58 | 196 | 1.0 | 4.0 | 0.00 | 0.00 | 0.00 | 66 | 1010.1 |
| 20260505024007 | 57 | 287 | 0.0 | 0.0 | 0.00 | 0.00 | 0.00 | 69 | 1010.1 |
| 20260505023507 | 57 | 281 | 0.0 | 0.0 | 0.00 | 0.00 | 0.00 | 69 | 1010.1 |
| 20260505023020 | 57 | 281 | 0.0 | 0.0 | 0.00 | 0.00 | 0.00 | 70 | 1010.1 |
| 20260505022508 | 58 | 281 | 0.0 | 0.0 | 0.00 | 0.00 | 0.00 | 70 | 1010.1 |
| 20260505022007 | 58 | 281 | 0.0 | 0.0 | 0.00 | 0.00 | 0.00 | 69 | 1010.2 |
| 20260505021527 | 58 | 281 | 0.0 | 1.0 | 0.00 | 0.00 | 0.00 | 69 | 1010.3 |
| 20260505021008 | 58 | 281 | 0.0 | 2.0 | 0.00 | 0.00 | 0.00 | 68 | 1010.3 |
| 20260505020511 | 59 | 281 | 0.0 | 2.0 | 0.00 | 0.00 | 0.00 | 67 | 1010.2 |
| 20260505020016 | 59 | 211 | 0.0 | 2.0 | 0.00 | 0.00 | 0.00 | 67 | 1010.2 |
| 20260505015507 | 59 | 259 | 0.0 | 2.0 | 0.00 | 0.00 | 0.00 | 67 | 1010.1 |
| 20260505015005 | 59 | 251 | 1.0 | 4.0 | 0.00 | 0.00 | 0.00 | 68 | 1010.1 |
| 20260505014513 | 60 | 202 | 1.0 | 6.0 | 0.00 | 0.00 | 0.00 | 68 | 1010.1 |